Schenectady County Airport Schenectady US
ICAO: KSCH
IATA: SCH
Category: Medium
Scheduled Services: No

Elevation: 378 ft
TransAlt. 18000 ft.

Airport Communications:
ALBANY APP/DEP:118.05
AWOS 3:119.275
CTAF:121.3
ANG OPS COMD POST:140.45
TWR:121.3
UNICOM:122.95

KSCH Zoom In..

If you have problems with the map follow the link
https://www.worldairports.se/pages/airport.php?
ICAO=KSCH

Runways:

(A) RW 04 length 7001 ft width 150 ft
ILS 109.70 / hdg 40

(B) RW 10 length 4850 ft width 150 ft
---- / hdg 102

(C) RW 15 length 2864 ft width 50 ft
---- / hdg 147

(D) RW 22 length 7001 ft width 150 ft
---- / hdg 220

(E) RW 28 length 4850 ft width 150 ft
---- / hdg 282

(F) RW 33 length 2864 ft width 50 ft
---- / hdg 327

Location; KSCH
Day. 19 / Time. 19.45 Zulu
* Altimeter: 30.23
* Temperature: 02° c. 35.6°f.
* Wind from: 270° Speed 21 kn with Gusts up to 28 kn.
Dewpoint: -12° c.
Visibility: 15 Statute Miles.
Clouds: Scattered 6500 ft.

KSCH 191945Z 27021G28KT 15SM SCT065 02/M12 A3023


Wind From 270°
Speed 21 kn.

 
 
jpsmedia worldairports.se 2020   terms of use